Regional Weather Roundup
Issued by NWS

Home | Current Version | Previous Version | Graphics & Text | Print | Product List | Glossary On
Versions: 1 2 3 4 5 6 7 8 9 10 11 12 13 14 15 16 17 18 19 20 21 22 23 24 25 26 27 28 29 30 31 32 33 34 35 36 37 38 39 40 41 42 43 44 45 46 47 48 49 50
000
ASUS43 KTOP 232108
RWRKS

WEATHER ROUNDUP FOR KANSAS
NATIONAL WEATHER SERVICE GOODLAND KS
400 PM CDT TUE SEP 23 2014

NOTE:  "FAIR" INDICATES FEW OR NO CLOUDS BELOW 12,000 FEET WITH NO
SIGNIFICANT WEATHER AND/OR OBSTRUCTIONS TO VISIBILITY.

KSZ001>006-013>018-027>032-041>047-232200-
NORTHWEST KANSAS

CITY           SKY/WX    TMP DP  RH WIND       PRES   REMARKS
GOODLAND       SUNNY     83  52  34 CALM      30.03F
HILL CITY      MOSUNNY   86  63  45 VRB7      29.97F
RUSSELL        SUNNY     78  59  51 SE15G26   29.98F
$$

KSZ061>065-074>080-084>089-232200-
SOUTHWEST KANSAS

CITY           SKY/WX    TMP DP  RH WIND       PRES   REMARKS
DODGE CITY     MOSUNNY   89  55  31 SW16G30   29.98F
ELKHART          N/A     90  54  29 SW9         N/A
GARDEN CITY    PTSUNNY   90  57  32 S6        29.95F
GREAT BEND     PTSUNNY   82  57  42 S25       30.00F
LIBERAL        SUNNY     91  57  31 SW22G28   29.99F
PRATT          PTSUNNY   81  52  36 S24       30.03F
$$

KSZ066>073-081>083-090>101-232200-
SOUTHEAST KANSAS

CITY           SKY/WX    TMP DP  RH WIND       PRES   REMARKS
CHANUTE        SUNNY     75  54  47 SE14G22   30.15F
COFFEYVILLE    SUNNY     77  54  44 SE12      30.14F
HUTCHINSON     PTSUNNY   82  52  35 S21G29    30.04F
MEDICINE LODGE   N/A     84  55  36 S16G30    30.01F
NEWTON         PTSUNNY   75  52  43 S18G25    30.10F
PARSONS        SUNNY     76  52  43 SE12      30.16F
WICHITA INTL   PTSUNNY   81  51  35 S22G32    30.06F
WICHITA JABRA  MOSUNNY   78  52  40 S18G25    30.07F
WICHITA MCCONL PTSUNNY   79  51  37 SE18G26   30.08F
WINFIELD       SUNNY     80  54  40 S17G24    30.11F
$$

KSZ007>012-019>026-033>040-048>060-102>105-232200-
NORTHEAST KANSAS

CITY           SKY/WX    TMP DP  RH WIND       PRES   REMARKS
CONCORDIA      CLOUDY    63  61  93 E9        30.06F
EMPORIA        CLOUDY    75  53  46 SE18G25   30.12F
LAWRENCE       PTSUNNY   73  55  53 SE15      30.14F
MANHATTAN      LGT RAIN  71  59  65 SE8       30.08F
MARYSVILLE     TSTM      61  59  94 SE8       30.11F
OLATHE IND     MOSUNNY   74  54  49 SE10      30.16F
OLATHE EXE     MOSUNNY   71  54  54 SE14      30.16F
SALINA         CLOUDY    76  58  53 S9        30.05S
TOPEKA BILLARD PTSUNNY   77  52  41 SE13      30.13F
TOPEKA FORBES  PTSUNNY   77  51  40 SE17G23   30.13S
$$



USA.gov is the U.S. government's official web portal to all federal, state and local government web resources and services.